Погода в Рыпушкалицах

Россия / Республика Карелия     60°58′11″N   32°54′11″E
темп.,
°C
ветер,
м/с
пор.,
м/с
влажн.,
%
обл.,
%
осадки,
мм/ч
давл.,
гПа
погр.,
м
4 июля, пн
пн400:00+17юз229049 0.0 101619
03:00+16юз1196100 0.4 101616
06:00+17юз239898 0.3 1016118
09:00+18зюз349079 0.3 1016264
12:00+23зюз345759 0.0 1016573
15:00+24зюз34505 0.0 1015647
18:00+25юз24455 0.0 1014523
21:00+19з11685 0.0 101312
5 июля, вт
вт500:00+16юв117819 0.0 101311
03:00+15ююв1181100 0.0 101312
06:00+18ююв237435 0.0 101295
09:00+23ююз235923 0.0 1012642
12:00+21юз4664100 0.1 1012478
15:00+21юз357767 0.9 1012615
18:00+23зюз47631 0.0 1010694
21:00+18зюз22810 0.0 101046
6 июля, ср
ср600:00+15зюз2780100 0.0 1011126
03:00+15з4116394 0.0 1012370
06:00+14зюз39770 0.0 1012384
09:00+17з466441 0.0 1013665
12:00+19зюз465798 0.0 10131059
15:00+21зюз3548100 0.0 10121183
18:00+21зюз2447100 0.0 1011861
21:00+18вюв1164100 0.0 101011
7 июля, чт
чт700:00+16з1162100 0.0 101013
03:00+12юв228713 0.2 101021
06:00+14ю13905 0.0 1009139
09:00+19зюз34595 0.0 1010749
12:00+19зюз56590 0.0 1011904
15:00+20зюз4650100 0.0 10121032
18:00+20юз45506 0.0 1012998
21:00+16ююз277275 0.0 1012184
8 июля, пт
пт800:00+15юз277161 0.0 1013182
03:00+13ю238291 0.0 101363
06:00+14юз3883100 0.0 1013280
09:00+15юз2481100 0.0 1014219
12:00+15зюз3680100 0.0 1014471
15:00+18з3672100 0.0 1014663
18:00+15зюз2591100 0.1 1014233
21:00+13ююз2498100 0.6 1014193